Clearfield, PA

7:46 PM EDT on September 03, 2015 (GMT -0400)
Woodland | | Change Station
CLOSE
Current Station
Personal Weather Station
Location: Woodland, PA
Elevation: 1765 ft
Nearby Weather Stations

Elev 1765 ft 41.01 °N, 78.35 °W | Updated 37 seconds ago

Clear
Clear
73.9 °F
Feels Like 77 °F
N
0.0
Wind Variable Wind from West

Today
High -- | Low -- °F
--% Chance of Precip.
Yesterday
High -- | Low -- °F
Precip. -- in
6:42 AM 7:43 PM
Waning Gibbous, 65% visible
Pressure 29.94 in
Visibility 10.0 miles
Clouds Clear
Heat Index 77 °F
Dew Point 59 °F
Humidity 59%
Rainfall 0.00 in
Snow Depth Not available.
UV 0 out of 12
Pollen 10.00 out of 12
Air Quality Not available.
Flu Activity Not available.
METAR KFIG 032254Z AUTO 05003KT 10SM CLR 26/18 A2996 RMK AO2 LTG DSNT NW SLP137 T02560183
Pressure 29.94 in
Visibility 10.0 miles
Clouds Clear
Heat Index 77 °F
Dew Point 59 °F
Humidity 59%
Rainfall 0.00 in
Snow Depth Not available.
UV 0 out of 12
Pollen 10.00 out of 12
Air Quality Not available.
Flu Activity Not available.
METAR KFIG 032254Z AUTO 05003KT 10SM CLR 26/18 A2996 RMK AO2 LTG DSNT NW SLP137 T02560183

10-Day Weather Forecast

×

Almanac

Astronomy

Sep. 03, 2015 Rise Set
Actual Time
Civil Twilight
Nautical Twilight
Astronomical Twilight
Moon
Length of Visible Light
Length of Day
Tomorrow will be .
, % of the Moon is Illuminated

Today's Extremes

State Highs State Lows

Community

WunderPhotos

Upload Photos

1,852,063 photos uploaded!

WunderBlogs® & News

Nearby

Air Quality

  Air Quality AQ Index Pollutant
Not available.

Snow Depth

Station Depth Elevation

Earthquake Activity

City Distance Mag. Time & Date
Minimum magnitude displayed is 2.5.

Coastal Water Temperatures

Place Temperature

Stations

Nearby Weather Stations

Station Location Temp. Windchill Dew Point Humidity Wind Precip. Elev Updated Type